Location: Addison Town Hall
(32.9525°N, 96.8158°W)
Time: 02:00:14
(UTC+00:00)

Cosmos 1242 Rocket - Pass Details

Date: 08 March 2021
Orbit: 447 x 484 km, 81.2° (Epoch: 10 April)

Event Time Altitude Azimuth Distance (km) Brightness Sun altitude
Rises 12:12:31 0° 197° (SSW) 2,432 6.0 -7.9°
Reaches altitude 10° 12:14:36 10° 202° (SSW) 1,567 4.9 -7.4°
Maximum altitude 12:17:57 51° 280° (W) 572 2.5 -6.7°
Drops below altitude 10° 12:21:20 10° 357° (N) 1,590 5.1 -6.0°
Sets 12:23:27 0° 3° (N) 2,472 6.2 -5.6°
